Tracking 29892 objects as of 21-Nov-2024
HD Live streaming from Space Station
objects crossing your sky now

STARLINK-11339

Track STARLINK-11339 now!
10-day predictions
STARLINK-11339 is classified as:


NORAD ID: 61691
Int'l Code: 2024-195E
Perigee: 346.5 km
Apogee: 347.6 km
Inclination: 53.2 °
Period: 91.3 minutes
Semi major axis: 6718 km
RCS: Unknown
Launch date: October 30, 2024
Source: United States (US)
Launch site: AIR FORCE WESTERN TEST RANGE (AFWTR)
Your satellite tracking list
Your tracking list is empty




NASA's NSSDC Master Catalog

Two Line Element Set (TLE):
1 61691U 24195E   24326.16667824  .00124041  00000-0  75317-3 0  9999
2 61691  53.1567 201.6519 0000770  83.8994  29.6763 15.76659239  4641
Source of the keplerian elements: AFSPC